www.pogodaiklimat.ru

Погода и климат >> Архив погоды >> Камерун >> Douala


АРХИВ ПОГОДЫ в Douala

Время (UTC), дата Ветер
(напр.,м/с)
 
Видим.   Явления Облачность Т
(С)
Тd
(С)
f
(%)
Тe
(С)
Тes
(С)
Комфортность P
(гПа)
Po
(гПа)
Тmin
(С)
Tmax
(С)
R
(мм)
R24
(мм)
S
(см)
03 18.04 штиль 0 6000 м гроза без осадков {дождь} 9/9 400 м
[Cb cap Ac cuf]
+26.5 +25.8 96 +39 +39 очень
душно
1011.4 1010.4
06 18.04 штиль 0 3500 м гроза без осадков {дождь} 9/6 400 м
[Cb cap Ci ing]
+26.3 +25.9 98 +39 +39 очень
душно
1012.8 1011.8 +26.0 1
09 18.04 штиль 0 10 км в посл. час гроза 8/8 480 м
[Cb cap]
+32.0 +25.8 70 +47 +51 опасность
перегрева
1014.0 1013.0
12 18.04 ЮЗ 2 10 км {гроза} 9/9 480 м
[Cb cap]
+32.7 +25.3 65 +47 +49 опасность
перегрева
1012.5 1011.5
03 19.04 штиль 0 8000 м гроза без осадков 8/8 400 м
[Cb cap]
+23.5 +22.8 96 +31 +31 очень
душно
1011.7 1010.7
06 19.04 штиль 0 10 км гроза без осадков 9/8 400 м
[Cb cap Ac cuf]
1012.4 1011.4 +23.5 14
09 19.04 СВ 1 20 км гроза без осадков 9/5 480 м
[Cb cap Cc]
+29.5 +24.8 76 +42 +49 опасность
перегрева
1012.7 1011.7
12 19.04 ЮЗ 2 20 км {гроза} 9/5 600 м
[Cb cap Ci ing]
+31.8 +25.4 69 +46 +55 опасность
перегрева
1011.2 1010.2
18 19.04 ЮЗ 1 10 км гроза без осадков 10/10 300 м
[Cb cap]
+26.0 +23.2 85 +35 +35 очень
душно
1009.0 1008.0 +33.0
21 19.04 З 1 10 км гроза без осадков 8/5 400 м
[Cb cap Ac und Ci sp]
+25.5 +23.4 88 +34 +34 очень
душно
1011.4 1010.4
00 20.04 С 1 10 км гроза без осадков 9/9 400 м
[Cb cap]
+24.7 +23.0 90 +33 +33 очень
душно
1012.1 1011.1
03 20.04 Ю 1 10 км гроза, ливневой дождь 10/8 400 м
[Cb cap Ac As]
+24.8 +24.0 95 +34 +34 очень
душно
1012.0 1011.0
09 20.04 ЮЗ 1 10 км гроза без осадков 10/8 400 м
[Cb cap Ac As]
+25.3 +23.5 90 +34 +35 очень
душно
1013.0 1012.0
12 20.04 штиль 0 10 км гроза без осадков 9/9 400 м
[Cb cap]
+28.4 +24.3 78 +40 +42 очень
душно
1010.2 1009.2
15 20.04 ЮЗ 1 10 км в посл. час гроза 9/6 400 м
[Cb calv Ac cuf]
+29.5 +25.3 78 +43 +45 опасность
перегрева
1008.6 1007.6
18 20.04 ЮЗ 2 10 км {гроза} 9/8 400 м
[Cb cap Ac cuf]
+27.3 +24.1 83 +38 +38 очень
душно
1009.9 1008.9 +29.5
21 20.04 штиль 0 10 км 8/4 400 м
[Cb cap Ac cuf]
+25.0 +23.9 94 +34 +34 очень
душно
1011.7 1010.6
00 21.04 штиль 0 10 км 8/4 480 м
[Cb cap Ci sp]
+24.7 +23.1 91 +33 +33 очень
душно
1011.4 1010.4
03 21.04 штиль 0 10 км 8/5 480 м
[Cb cap Ci sp]
+23.8 +23.0 95 +32 +32 очень
душно
1011.2 1009.2
06 21.04 штиль 0 10 км 8/5 400 м
[Cb cap Ci sp]
+23.5 +22.8 96 +31 +31 очень
душно
1010.5 1009.5 +23.5
09 21.04 штиль 0 10 км 9/9 400 м
[Cb calv]
+29.2 +25.2 79 +42 +44 опасность
перегрева
1012.8 1011.8
12 21.04 ЮЗ 3 10 км 8/8 480 м
[Cb calv]
+32.5 +27.1 73 +51 +54 опасность
перегрева
1010.5 1009.5
15 21.04 З 3 20 км 3/3 600 м
[Cb calv]
+31.5 +25.4 70 +46 +50 опасность
перегрева
1008.2 1007.2
18 21.04 штиль 0 10 км гроза без осадков 9/5 480 м
[Cb cap Ac cuf Ci ing]
+29.0 +25.5 81 +43 +43 опасность
перегрева
1010.0 1009.0 +33.8
21 21.04 В 1 10 км гроза без осадков 9/6 480 м
[Cb cap Ac cuf]
+26.5 +25.0 91 +38 +38 очень
душно
1011.1 1010.1
00 22.04 штиль 0 10 км гроза без осадков 9/9 480 м
[Cb cap]
+25.2 +23.0 100 +34 -194 очень
душно
1011.3 1010.3
03 22.04 штиль 0 10 км гроза без осадков 6/6 480 м
[Cb cap]
+24.7 +23.8 95 +34 +34 очень
душно
1010.0 1009.0
06 22.04 штиль 0 10 км {гроза} 8/8 480 м
[Cb calv]
+24.5 +23.8 96 +33 +34 очень
душно
1011.8 1010.8 +24.4
09 22.04 штиль 0 10 км 6/6 480 м
[Cu med, cong]
+31.7 +24.4 65 +44 +52 опасность
перегрева
1011.9 1012.0
12 22.04 ЮЗ 5 10 км 8/8 700 м
[Cb cap]
+33.7 +24.0 57 +46 +48 опасность
перегрева
1010.7 1009.7
15 22.04 ЮЗ 3 10 км 5/5 600 м
[Cb calv]
+32.0 +25.9 70 +47 +50 опасность
перегрева
1007.7 1006.7
18 22.04 ЮЗ 2 10 км 8/5 600 м
[Cb cap Ci sp]
+29.0 +24.5 77 +41 +41 опасность
перегрева
1008.8 1007.8 +33.5
21 22.04 штиль 0 10 км гроза без осадков 6/6 480 м
[Cb cap]
+28.0 +25.8 88 +42 +42 опасность
перегрева
1011.5 1010.5
00 23.04 Ю 2 6000 м гроза, ливневой дождь 9/9 480 м
[Cb cap]
+27.0 +25.7 93 +40 +40 очень
душно
1011.2 1010.2 0.0
03 23.04 штиль 0 10 км гроза без осадков {дождь} 9/8 400 м
[Cb cap]
+24.8 +23.7 94 +34 +34 очень
душно
1010.0 1009.0
06 23.04 штиль 0 10 км гроза, ливневой дождь 9/9 400 м
[Cb cap]
+23.0 +22.3 96 +31 +32 очень
душно
1011.6 1010.6 +23.0 31
09 23.04 штиль 0 10 км гроза без осадков 10/6 400 м
[Cu Sc Ac As]
+24.5 +22.7 90 +32 +35 очень
душно
1013.2 1012.2
15 23.04 З 2 20 км гроза без осадков 9/5 480 м
[Cb cap Ac und Cc]
+30.3 +25.1 74 +44 +46 опасность
перегрева
1007.8 1006.8
18 23.04 штиль 0 10 км в посл. час гроза 9/6 480 м
[Cb cap Ac cuf]
+27.5 +25.4 88 +40 +40 очень
душно
1009.5 1008.5 +30.9 0.7
21 23.04 штиль 0 10 км {гроза} 9/9 480 м
[Cb cap Ci ing]
+26.6 +24.4 88 +37 +37 очень
душно
1010.2 1009.2
00 24.04 штиль 0 8000 м гроза без осадков 9/9 400 м
[Cb cap]
+25.4 +24.8 96 +36 +36 очень
душно
1010.8 1009.8
03 24.04 штиль 0 8000 м в посл. час гроза 6/6 400 м
[Cb calv]
+25.5 +24.8 96 +36 +36 очень
душно
1010.1 1009.1
06 24.04 штиль 0 10 км {гроза} 9/8 400 м
[Cb calv Ac cuf]
+25.2 +24.5 96 +35 +35 очень
душно
1011.5 1010.5 +24.5 0.7
09 24.04 ЮЗ 1 10 км 9/9 480 м
[Cb calv]
+29.5 +25.4 79 +43 +45 опасность
перегрева
1013.1 1012.1
12 24.04 ЮЗ 2 20 км 8/8 600 м
[Cb cap]
+32.0 +24.8 66 +45 +49 опасность
перегрева
1011.7 1010.7
15 24.04 ЮЗ 2 10 км 6/4 600 м
[Cb cap Ac cuf]
+32.0 +23.6 61 +43 +46 опасность
перегрева
1008.8 1007.7

 

Местоположение метеостанции Douala (Камерун): широта 4.00 долгота 9.73 высота над уровнем моря 9 м.

В архиве по умолчанию представлена погода в Douala за последнюю неделю. Архивные данные за месяц целиком и за предыдущие месяцы, начиная с января 2011 года, Вы можете получить, выбрав интересующий диапазон дат из раскрывающегося списка и нажав кнопку "Ввод!".


*Определитесь, кто Вы:
робот инопланетянин человек

Внимание! Время в таблицах - всемирное. Для получения местного времени необходимо прибавить поправку, которая в Douala равна 1 ч.

Смотрите также архив погоды в соседних городах и на ближайших метеорологических станциях:

Погода в Malabo (Экваториальная Гвинея) (116 км)
Погода в Bata (Экваториальная Гвинея) (233 км)
Погода в Bitam (Габон) (289 км)
Погода в Port Harcourt (Нигерия) (315 км)
Погода в Oyem (Габон) (338 км)
Погода в Libreville (Габон) (396 км)
Погода в Makurdi (Нигерия) (436 км)
Погода в Makokou (Габон) (517 км)
Погода в Souanke (Конго) (524 км)
Погода в Lambarene (Габон) (526 км)

Пояснения к столбцам:

Ветер - указаны скорость ветра в м/с - средняя за 10 мин, порывы в срок и между сроками (в фигурных скобках) и направление, откуда дует ветер: С - северный, СВ - северо-восточный, В - восточный, ЮВ - юго-восточный, Ю - южный, ЮЗ - юго-западный, З - западный, СЗ - северо-западный.
Видимость - горизонтальная дальность видимости в метрах или километрах. При видимости от 1 до 10 км при отсутствии осадков обычно наблюдается дымка, при ухудшении видимости до 1 км и менее - туман. В сухую погоду видимость может ухудшаться дымом, пылью или мглою.
Явления - указаны атмосферные явления, наблюдавшиеся в срок или в последний час перед сроком; фигурными скобками обозначены явления, наблюдавшиеся между сроками (за 1-3 часа до срока); квадратными скобками обозначены град или гололедные отложения с указанием их диаметра в мм.
Облачность - указаны через наклонную черту общая и нижняя облачность в баллах и высота нижней границы облаков в метрах; квадратными скобками обозначены формы облаков: Ci - перистые, Cs - перисто-слоистые, Cc - перисто-кучевые, Ac - высококучевые, As - высокослоистые, Sc - слоисто-кучевые, Ns - слоисто-дождевые, Cu - кучевые, Cb - кучево-дождевые. Подробнее классификацию облаков см. в Атласе облаков (PDF).
T - Температура воздуха - температура, измеренная на высоте 2 м над землей.
Td - Температура точки росы - температура, при понижении до которой содержащийся в воздухе водяной пар достигнет насыщения.
f - Относительная влажность воздуха - влажноcть воздуха, измеренная на высоте 2 м над землей.
Te - Эффективная температура - температура, которую ощущает одетый по сезону человек в тени. Характеристика душности погоды. При расчете учитывается влияние влажности воздуха и скорости ветра на теплоощущения человека.
Tes - Эффективная температура на солнце - температура, которую ощущает человек, с поправкой на солнечный нагрев. Характеристика знойности погоды. Зависит от высоты солнца над горизонтом, облачности и скорости ветра. Ночью, в пасмурную погоду, а также при ветре 12 м/с и более поправка равна нулю.
P - Атмосферное давление - приведенное к уровню моря атмосферное давление.
Po - Атмосферное давление - измеренное на уровне метеостанции атмосферное давление.
Tmin - Минимальная температура - минимум температуры воздуха на высоте 2 м над землей.
Tmax - Максимальная температура - максимум температуры воздуха на высоте 2 м над землей.
R - Количество осадков - Количество выпавших осадков за период времени, мм. При наведении курсора мыши на число - период времени, за который выпало указанное количество осадков.
R24 - Количество осадков - Количество выпавших осадков за 24 часа, мм.
S - Снежный покров - Высота снежного покрова, см. При наведении курсора мыши на число - состояние снежного покрова и степень покрытия местности в баллах.